Location: Township of Marena
(38.1747°N, 99.6798°W)
Time: 11:07:38
(UTC+00:00)

Cosmos 220 Rocket - Pass Details

Date: 26 October 2020
Orbit: 574 x 617 km, 74.0° (Epoch: 24 November)

Event Time Altitude Azimuth Distance (km) Brightness Sun altitude
Rises 01:07:16 0° 183° (S) 2,812 7.5 -16.4°
Reaches altitude 10° 01:09:31 10° 177° (S) 1,922 6.6 -16.9°
Maximum altitude 01:13:38 47° 104° (ESE) 803 4.2 -17.7°
Enters shadow 01:15:17 31° 51° (NE) 1,069 4.8 -18.0°
